QPF
0.00 0.00 0.00 0.00 0.00 0.00 0.00 0.00 0.00 0.00 0.00 0.00 0.00 0.00 0.00 0.00 0.00 0.00 0.00 0.00 0.00 0.00 0.00 0.00 0.00 0.00 0.00 0.00 0.00 0.00 0.00 0.00 0.00
0.00 0.00 0.00 0.00 0.01 0.01 0.00 0.00 0.00 0.00 0.00 0.00 0.00 0.00 0.00 0.00 0.00 0.00 0.00 0.00 0.00 0.00 0.00 0.00 0.00 0.00 0.00 0.00 0.00 0.00 0.00 0.00 0.00
0.00 0.00 0.00 0.00 0.00 0.01 0.00 0.00 0.00 0.00 0.00 0.00 0.00 0.00 0.00 0.00 0.00 0.00 0.00 0.00 0.00 0.00 0.00 0.00 0.00 0.00 0.01 0.00 0.03 0.05 0.02 0.00 0.00
0.00 0.00 0.00 0.00 0.00 0.00 0.00 0.00 0.00 0.00 0.00 0.00 0.00 0.00 0.00 0.00 0.00 0.00 0.00 0.00 0.00 0.00 0.00 0.00 0.00 0.00 0.03 0.00 0.00 0.00 0.00 0.00 0.02
0.00 0.00 0.00 0.00 0.00 0.00 0.00 0.00 0.00 0.00 0.00 0.00 0.00 0.00 0.00 0.00 0.00 0.00 0.00 0.00 0.00 0.00 0.00 0.00 0.01 0.03 0.06 0.03 0.01 0.00 0.02 0.03 0.02
0.00 0.00 0.00 0.00 0.00 0.00 0.00 0.00 0.00 0.00 0.00 0.00 0.00 0.00 0.00 0.00 0.00 0.00 0.00 0.00 0.00 0.00 0.00 0.06 0.14 0.08 0.06 0.05 0.06 0.05 0.05 0.05 0.04
0.00 0.00 0.00 0.00 0.00 0.00 0.00 0.00 0.00 0.00 0.00 0.00 0.00 0.00 0.00 0.00 0.00 0.00 0.00 0.04 0.12 0.37 0.23 0.16 0.14 0.07 0.08 0.09 0.13 0.08 0.04 0.01 0.00
0.00 0.00 0.00 0.00 0.00 0.00 0.00 0.02 0.02 0.00 0.00 0.00 0.00 0.00 0.00 0.00 0.00 0.01 0.10 0.19 0.38 0.50 0.38 0.26 0.23 0.12 0.14 0.12 0.12 0.06 0.03 0.03 0.02
0.00 0.00 0.00 0.00 0.00 0.00 0.00 0.01 0.01 0.00 0.00 0.00 0.00 0.00 0.02 0.08 0.16 0.17 0.05 0.02 0.06 0.13 0.19 0.32 0.47 0.15 0.07 0.15 0.31 0.24 0.08 0.07 0.05
0.00 0.00 0.00 0.00 0.03 0.03 0.00 0.00 0.01 0.00 0.00 0.00 0.04 0.12 0.09 0.21 0.17 0.12 0.05 0.09 0.05 0.05 0.09 0.12 0.10 0.07 0.07 0.06 0.10 0.12 0.09 0.17 0.34
0.00 0.00 0.00 0.00 0.22 0.82 0.39 0.09 0.03 0.00 0.01 0.05 0.08 0.07 0.19 0.17 0.08 0.07 0.08 0.08 0.05 0.05 0.07 0.07 0.05 0.02 0.01 0.00 0.05 0.13 0.12 0.18 0.25
0.00 0.00 0.00 0.00 0.08 0.34 0.86 0.24 0.12 0.13 0.11 0.05 0.11 0.12 0.13 0.10 0.03 0.04 0.04 0.03 0.01 0.01 0.02 0.02 0.02 0.01 0.00 0.00 0.00 0.01 0.02 0.05 0.00
0.01 0.00 0.00 0.00 0.00 0.02 0.23 0.24 0.16 0.10 0.05 0.07 0.07 0.08 0.06 0.02 0.01 0.01 0.00 0.00 0.00 0.00 0.00 0.00 0.00 0.00 0.00 0.00 0.00 0.00 0.00 0.00 0.00
0.00 0.00 0.00 0.00 0.00 0.02 0.08 0.11 0.12 0.10 0.05 0.02 0.02 0.01 0.00 0.00 0.00 0.00 0.00 0.00 0.00 0.00 0.00 0.00 0.00 0.00 0.00 0.00 0.00 0.00 0.00 0.00 0.00
0.00 0.00 0.00 0.00 0.00 0.02 0.06 0.11 0.08 0.05 0.02 0.00 0.00 0.00 0.00 0.00 0.00 0.00 0.00 0.00 0.00 0.00 0.00 0.00 0.00 0.00 0.00 0.00 0.00 0.00 0.00 0.00 0.00
0.00 0.00 0.00 0.00 0.00 0.02 0.04 0.02 0.03 0.01 0.00 0.00 0.00 0.00 0.00 0.00 0.00 0.00 0.00 0.00 0.00 0.00 0.00 0.00 0.00 0.00 0.00 0.00 0.00 0.00 0.00 0.00 0.00
0.00 0.00 0.00 0.00 0.00 0.01 0.01 0.00 0.00 0.00 0.00 0.00 0.00 0.00 0.00 0.00 0.00 0.00 0.00 0.00 0.00 0.00 0.00 0.00 0.00 0.00 0.00 0.00 0.00 0.00 0.00 0.00 0.00
0.00 0.00 0.00 0.00 0.00 0.00 0.00 0.00 0.00 0.00 0.00 0.00 0.00 0.00 0.00 0.00 0.00 0.00 0.00 0.00 0.00 0.00 0.00 0.00 0.00 0.00 0.00 0.00 0.00 0.00 0.00 0.01 0.01
0.00 0.00 0.00 0.00 0.00 0.00 0.00 0.00 0.00 0.00 0.00 0.00 0.00 0.00 0.00 0.00 0.00 0.00 0.00 0.00 0.00 0.00 0.00 0.00 0.00 0.00 0.00 0.00 0.01 0.02 0.01 0.01 0.04
0.00 0.00 0.00 0.00 0.00 0.00 0.00 0.00 0.00 0.00 0.00 0.00 0.00 0.00 0.00 0.00 0.00 0.00 0.00 0.00 0.00 0.00 0.00 0.00 0.00 0.00 0.00 0.00 0.00 0.00 0.01 0.04 0.05
MSLP
1004.37 1005.09 1005.50 1006.18 1007.00 1007.68 1008.35 1009.01 1009.78 1010.55 1011.31 1011.95 1012.45 1012.91 1013.31 1013.75 1014.05 1014.45 1014.80 1015.08 1015.14 1015.40 1015.57 1015.61 1015.58 1015.73 1015.73 1015.83 1015.97 1016.07 1016.28 1016.68 1016.91
1004.04 1004.77 1005.17 1005.82 1006.45 1007.05 1007.67 1008.38 1008.92 1009.56 1010.42 1011.15 1011.76 1012.24 1012.84 1013.36 1013.72 1014.16 1014.50 1014.77 1015.04 1015.13 1015.17 1015.38 1015.54 1015.63 1015.76 1015.68 1015.66 1015.76 1016.05 1016.40 1016.51
1003.87 1004.01 1004.57 1005.14 1005.86 1006.43 1007.02 1007.50 1008.13 1009.04 1009.73 1010.26 1010.70 1011.41 1012.15 1012.68 1013.25 1013.68 1014.06 1014.44 1014.72 1014.93 1014.87 1014.94 1015.19 1015.32 1015.53 1015.67 1015.80 1016.02 1016.10 1016.15 1016.23
1003.39 1003.78 1004.13 1004.62 1004.96 1005.59 1006.21 1006.88 1007.75 1008.44 1009.22 1009.98 1010.53 1010.90 1011.41 1012.06 1012.69 1013.19 1013.57 1013.91 1014.22 1014.44 1014.59 1014.69 1014.87 1015.07 1015.19 1015.30 1015.33 1015.47 1015.74 1015.84 1015.89
1002.96 1003.11 1003.55 1004.19 1004.82 1005.36 1006.03 1006.50 1007.04 1007.75 1008.44 1009.16 1009.76 1010.39 1011.00 1011.57 1012.04 1012.62 1013.24 1013.45 1013.68 1013.97 1014.35 1014.62 1014.82 1015.07 1015.29 1015.26 1015.06 1015.05 1015.21 1015.24 1015.32
1003.50 1003.63 1003.90 1004.29 1005.05 1005.43 1005.82 1006.15 1006.68 1007.25 1008.01 1008.69 1009.32 1010.05 1010.67 1011.22 1011.59 1012.17 1012.55 1012.72 1013.02 1013.46 1014.08 1014.52 1014.89 1014.91 1014.83 1014.78 1014.87 1014.94 1014.65 1014.71 1014.83
1004.03 1004.38 1004.36 1004.67 1005.16 1005.62 1005.96 1006.30 1006.79 1007.13 1007.79 1008.56 1009.18 1009.76 1010.32 1010.67 1010.99 1011.50 1011.84 1012.17 1012.59 1013.35 1013.68 1014.01 1014.56 1014.84 1014.74 1014.43 1014.28 1014.28 1014.33 1014.20 1014.14
1004.26 1004.13 1004.91 1005.41 1006.03 1006.69 1006.90 1006.99 1007.11 1007.67 1007.77 1008.40 1008.88 1009.60 1010.06 1010.17 1010.34 1010.86 1011.41 1011.91 1012.29 1012.50 1012.56 1012.84 1013.57 1013.69 1013.54 1013.53 1013.69 1013.61 1013.82 1013.91 1013.65
1004.12 1004.64 1004.95 1005.43 1005.96 1006.27 1006.28 1006.68 1006.85 1007.11 1007.46 1007.96 1008.65 1009.40 1009.65 1009.61 1009.99 1010.60 1011.39 1011.95 1012.07 1012.26 1012.51 1012.90 1013.29 1013.03 1012.86 1013.00 1012.88 1012.49 1012.55 1013.17 1013.24
1004.27 1004.70 1005.13 1005.17 1005.44 1005.66 1005.63 1005.48 1005.79 1006.06 1006.47 1007.44 1008.59 1009.26 1009.72 1010.33 1010.66 1010.96 1011.87 1012.55 1012.79 1013.13 1013.15 1013.11 1013.19 1012.93 1012.80 1012.98 1012.99 1012.70 1012.20 1011.96 1012.71
1004.79 1004.91 1004.91 1004.93 1004.99 1004.88 1004.85 1005.57 1005.91 1006.48 1006.70 1007.63 1008.66 1010.14 1010.59 1010.52 1010.87 1011.68 1012.85 1013.51 1013.73 1013.96 1013.86 1013.84 1013.77 1013.52 1013.34 1013.02 1012.63 1012.71 1012.50 1012.45 1011.99
1004.24 1004.73 1004.94 1004.96 1004.55 1003.65 1003.45 1004.01 1005.08 1006.82 1007.25 1008.52 1009.66 1011.06 1011.42 1011.43 1011.92 1012.72 1013.42 1014.03 1014.34 1014.45 1014.46 1014.54 1014.31 1013.91 1013.54 1013.30 1012.73 1012.39 1012.20 1012.01 1011.34
1004.03 1004.80 1005.26 1005.29 1005.20 1004.76 1004.86 1004.88 1006.81 1006.94 1007.82 1009.47 1010.37 1011.42 1011.95 1012.08 1012.63 1013.38 1014.07 1014.54 1014.72 1014.95 1014.79 1014.61 1014.21 1013.88 1013.63 1013.01 1012.16 1011.85 1011.56 1011.41 1010.91
1003.78 1004.72 1005.48 1005.89 1005.60 1006.19 1006.48 1007.24 1007.52 1007.72 1008.71 1009.57 1010.76 1011.68 1012.32 1013.01 1013.68 1013.99 1014.49 1014.83 1015.04 1015.07 1014.97 1014.77 1014.46 1013.99 1013.33 1012.54 1011.76 1010.76 1010.46 1010.41 1010.23
1003.83 1005.00 1005.79 1005.88 1006.00 1006.27 1006.99 1007.33 1007.51 1008.42 1009.13 1010.38 1011.21 1012.26 1013.06 1013.97 1014.21 1014.45 1014.71 1014.72 1014.95 1014.92 1014.77 1014.68 1014.35 1013.75 1013.08 1012.31 1011.42 1010.63 1009.93 1009.52 1009.27
1003.57 1004.41 1005.37 1005.76 1006.41 1006.89 1007.34 1007.62 1007.52 1008.71 1010.32 1011.09 1011.96 1013.11 1013.64 1014.07 1014.29 1014.58 1014.68 1014.64 1014.79 1014.61 1014.44 1014.41 1014.10 1013.76 1013.02 1011.94 1011.04 1010.22 1009.39 1008.75 1008.24
1003.42 1004.37 1005.19 1005.94 1006.50 1007.14 1007.80 1008.21 1008.61 1009.15 1010.59 1011.64 1012.38 1012.99 1013.63 1013.93 1014.28 1014.70 1014.65 1014.69 1014.89 1014.80 1014.78 1014.68 1014.35 1013.76 1012.87 1011.85 1010.75 1009.64 1008.72 1008.03 1007.42
1003.39 1004.21 1005.23 1006.02 1006.76 1007.23 1007.74 1008.41 1009.11 1009.89 1010.72 1011.55 1012.16 1012.64 1013.51 1014.23 1014.72 1014.88 1015.20 1015.24 1015.03 1014.90 1015.14 1015.10 1014.84 1014.33 1013.57 1012.28 1010.88 1009.72 1008.69 1007.66 1006.93
1003.75 1004.55 1005.38 1006.31 1006.98 1007.44 1008.16 1008.82 1009.55 1010.30 1010.85 1011.19 1011.99 1012.88 1013.84 1014.68 1015.03 1015.28 1015.25 1015.19 1015.19 1014.98 1015.30 1014.84 1014.49 1014.15 1013.76 1012.67 1011.52 1009.99 1008.38 1006.97 1006.28
1004.05 1005.02 1005.55 1006.12 1006.68 1007.51 1008.20 1009.02 1009.74 1010.38 1010.87 1011.31 1012.02 1012.69 1014.00 1014.51 1015.05 1015.00 1015.19 1015.39 1015.56 1015.73 1015.40 1014.70 1014.50 1013.99 1013.35 1012.63 1011.93 1010.37 1009.10 1007.86 1006.92
Thickness
5810 5805 5807 5800 5792 5790 5788 5787 5785 5782 5776 5770 5770 5769 5766 5765 5764 5762 5760 5760 5761 5761 5762 5763 5766 5767 5768 5769 5769 5769 5769 5771 5772
5807 5805 5805 5802 5799 5795 5793 5788 5788 5786 5781 5777 5774 5773 5770 5766 5766 5762 5760 5760 5760 5761 5763 5762 5762 5762 5764 5766 5766 5768 5770 5768 5769
5803 5813 5808 5806 5801 5799 5798 5796 5795 5790 5786 5781 5780 5777 5773 5770 5766 5764 5761 5760 5758 5758 5762 5763 5762 5762 5760 5761 5761 5760 5762 5764 5767
5805 5809 5810 5809 5808 5805 5801 5798 5795 5791 5786 5781 5777 5777 5776 5772 5767 5764 5763 5762 5761 5760 5760 5760 5759 5758 5758 5759 5760 5761 5759 5759 5762
5812 5818 5815 5812 5809 5804 5799 5798 5795 5792 5788 5785 5781 5777 5774 5772 5770 5767 5761 5761 5761 5760 5757 5755 5754 5751 5749 5751 5755 5759 5760 5760 5761
5803 5808 5807 5807 5802 5799 5798 5799 5795 5794 5790 5785 5783 5778 5773 5769 5769 5766 5763 5763 5763 5760 5753 5749 5747 5748 5750 5750 5749 5749 5755 5757 5758
5796 5797 5802 5801 5795 5793 5790 5791 5790 5789 5788 5785 5782 5778 5773 5771 5770 5767 5765 5765 5762 5756 5755 5751 5745 5743 5747 5750 5752 5753 5753 5755 5757
5790 5796 5792 5789 5783 5776 5777 5776 5780 5779 5782 5781 5781 5776 5772 5772 5772 5769 5766 5763 5760 5759 5758 5751 5749 5746 5750 5752 5751 5753 5748 5749 5753
5788 5785 5787 5784 5780 5778 5780 5776 5773 5779 5779 5780 5779 5774 5774 5776 5772 5767 5760 5757 5757 5757 5752 5749 5747 5747 5748 5747 5746 5753 5752 5748 5748
5780 5780 5779 5783 5780 5778 5781 5784 5787 5784 5786 5784 5776 5772 5768 5759 5740 5756 5751 5746 5745 5742 5741 5743 5743 5743 5742 5739 5740 5742 5747 5750 5742
5772 5776 5777 5783 5782 5780 5779 5775 5773 5779 5781 5778 5772 5757 5756 5760 5758 5751 5738 5732 5729 5725 5727 5727 5728 5730 5731 5734 5735 5732 5734 5735 5740
5774 5773 5772 5776 5780 5785 5783 5769 5766 5766 5771 5766 5759 5747 5746 5750 5745 5736 5728 5722 5718 5715 5713 5712 5714 5717 5720 5721 5726 5727 5727 5729 5736
5770 5767 5765 5766 5766 5770 5764 5754 5747 5760 5760 5750 5747 5742 5739 5739 5732 5724 5718 5712 5708 5705 5705 5705 5706 5707 5708 5714 5722 5722 5723 5723 5728
5766 5765 5758 5757 5761 5753 5754 5746 5739 5743 5746 5746 5740 5734 5728 5723 5715 5713 5707 5703 5699 5698 5698 5697 5697 5700 5703 5709 5715 5723 5724 5722 5724
5761 5754 5752 5755 5753 5751 5745 5745 5745 5741 5742 5736 5731 5721 5716 5706 5704 5702 5699 5698 5694 5694 5693 5692 5694 5695 5697 5701 5708 5714 5718 5719 5720
5760 5756 5754 5753 5747 5743 5741 5740 5745 5737 5727 5723 5717 5708 5703 5698 5697 5694 5692 5691 5689 5689 5689 5689 5689 5687 5689 5695 5700 5706 5711 5715 5718
5756 5753 5750 5746 5743 5738 5733 5732 5732 5730 5719 5710 5707 5702 5696 5694 5690 5686 5686 5684 5680 5680 5678 5677 5677 5680 5683 5689 5695 5701 5706 5710 5713
5750 5749 5744 5740 5733 5731 5729 5726 5722 5717 5711 5705 5703 5699 5691 5684 5679 5680 5676 5673 5672 5672 5665 5662 5661 5665 5667 5675 5683 5690 5693 5699 5703
5743 5739 5735 5727 5724 5723 5718 5715 5711 5706 5703 5702 5697 5689 5681 5672 5670 5668 5668 5666 5664 5664 5656 5657 5655 5654 5653 5659 5663 5668 5677 5686 5691
5735 5727 5725 5722 5720 5715 5711 5706 5702 5698 5694 5693 5688 5683 5672 5669 5664 5665 5663 5659 5655 5650 5647 5652 5649 5648 5647 5649 5649 5656 5660 5665 5672